Location: Goettingen
(51.5300°N, 9.9433°E)
Time: 09:51:51
(UTC+02:00)

ISS - Pass Details

Date: 15 May 2025
Orbit: 416 x 419 km, 51.6° (Epoch: 18 May)

Event Time Altitude Azimuth Distance (km) Brightness Sun altitude
Rises 22:12:44 0° 261° (W) 2,358 0.6 -8.8°
Reaches altitude 10° 22:14:50 10° 262° (W) 1,495 -0.5 -9.0°
Maximum altitude 22:18:12 89° 177° (S) 423 -3.8 -9.4°
Drops below altitude 10° 22:21:34 10° 84° (E) 1,496 -1.3 -9.7°
Enters shadow 22:23:05 - 84° (E) 2,122 -0.5 -9.9°
